This is the latest recevied weather packets stored in our database for station/object KY4LEX. If no packets are shown the sender has not sent any weather packets the latest 10 day(s).
| Time | Temp. | Humidity | Pressure | Rain* | Wind** | Luminosity | Snow |
|---|---|---|---|---|---|---|---|
| 1777746960 | 12.22° C | 45% | 1022.3 hPa | 0 mm | - | 62 W/m² | - |
| 1777746656 | 12.78° C | 46% | 1022.2 hPa | 0 mm | - | 114 W/m² | - |
| 1777746352 | 13.33° C | 43% | 1022.5 hPa | 0 mm | - | 143 W/m² | - |
| 1777746047 | 13.33° C | 44% | 1022.3 hPa | 0 mm | - | 258 W/m² | - |
| 1777745746 | 12.78° C | 44% | 1022.4 hPa | 0 mm | - | 522 W/m² | - |
| 1777745444 | 12.78° C | 44% | 1022.8 hPa | 0 mm | - | 231 W/m² | - |
| 1777745141 | 12.78° C | 45% | 1022.6 hPa | 0 mm | - | 169 W/m² | - |
| 1777744838 | 12.78° C | 45% | 1022.5 hPa | 0 mm | - | 162 W/m² | - |
| 1777744537 | 12.78° C | 45% | 1022.6 hPa | 0 mm | - | 95 W/m² | - |
| 1777744234 | 12.78° C | 44% | 1022.6 hPa | 0 mm | - | 97 W/m² | - |
| 1777743931 | 12.78° C | 44% | 1022.7 hPa | 0 mm | - | 105 W/m² | - |
| 1777743627 | 13.89° C | 41% | 1022.6 hPa | 0 mm | - | 132 W/m² | - |
| 1777743325 | 13.33° C | 41% | 1022.8 hPa | 0 mm | - | 224 W/m² | - |
| 1777743023 | 12.78° C | 43% | 1022.7 hPa | 0 mm | - | 224 W/m² | - |
| 1777742720 | 12.78° C | 43% | 1022.8 hPa | 0 mm | - | 151 W/m² | - |
| 1777742416 | 13.89° C | 41% | 1022.7 hPa | 0 mm | - | 203 W/m² | - |
| 1777742111 | 13.89° C | 39% | 1022.5 hPa | 0 mm | - | 247 W/m² | - |
| 1777741809 | 13.89° C | 39% | 1022.9 hPa | 0 mm | - | 215 W/m² | - |
| 1777741506 | 13.89° C | 44% | 1022.8 hPa | 0 mm | - | 195 W/m² | - |
| 1777741202 | 13.89° C | 41% | 1023.1 hPa | 0 mm | - | 232 W/m² | - |
| 1777740899 | 13.89° C | 41% | 1023 hPa | 0 mm | - | 273 W/m² | - |
| 1777740596 | 14.44° C | 39% | 1022.9 hPa | 0 mm | - | 309 W/m² | - |
| 1777740292 | 14.44° C | 39% | 1022.9 hPa | 0 mm | - | 377 W/m² | - |
| 1777739989 | 14.44° C | 39% | 1023 hPa | 0 mm | - | 288 W/m² | - |
| 1777739685 | 14.44° C | 41% | 1023.1 hPa | 0 mm | - | 899 W/m² | - |
* Rain latest hour (hover to see other rain measurements)
** Current wind speed in m/s (hover to see current wind gust speed)